Location: Clairmont
(55.2667°N, 118.8000°W)
Time: 15:14:40
(UTC+00:00)

Envisat - Pass Details

Date: 04 November 2020
Orbit: 764 x 766 km, 98.1° (Epoch: 03 December)

Event Time Altitude Azimuth Distance (km) Brightness Sun altitude
Rises 13:39:39 0° 18° (NNE) 3,247 6.4 -12.7°
Reaches altitude 10° 13:42:03 10° 23° (NNE) 2,316 5.7 -12.3°
Maximum altitude 13:47:01 50° 99° (E) 972 4.0 -11.6°
Drops below altitude 10° 13:51:56 10° 175° (S) 2,299 5.7 -10.9°
Sets 13:54:18 0° 181° (S) 3,220 6.4 -10.6°
